period_start,C,m1,H,J0,J1,J2,J3,J4,J5,JA,JB,JC,JD,JJ,JK,JN,#
2015-09-22 00:02:18,0.07,0.88,0.00,20.47,26.49,29.79,14.96,49.30,1021.50,2041.45,3096.70,3009.34,3276.02,600.64,604.66,32.99,0000 0000 0000 0000 000000
2015-09-22 00:07:19,0.11,0.89,0.00,20.45,26.47,29.76,14.78,49.29,1021.50,2041.83,3095.14,3008.43,3274.95,599.15,603.48,33.04,0000 0000 0000 0000 000000
2015-09-22 00:12:21,0.08,0.89,0.00,20.44,26.47,29.77,14.78,49.23,1021.50,2041.86,3093.29,3007.13,3273.50,600.09,604.18,33.09,0000 0000 0000 0000 000000
2015-09-22 00:17:22,0.05,0.89,0.00,20.44,26.45,29.76,14.89,49.24,1021.50,2041.94,3092.19,3006.58,3272.76,600.57,604.69,33.14,0000 0000 0000 0000 000000
2015-09-22 00:22:23,0.05,0.90,0.00,20.44,26.45,29.78,14.89,49.23,1021.50,2041.93,3090.83,3005.62,3271.89,599.90,604.12,33.19,0000 0000 0000 0000 000000
2015-09-22 00:27:24,0.05,0.90,0.00,20.44,26.44,29.80,14.87,49.33,1021.50,2041.97,3089.66,3004.88,3271.00,600.19,604.35,33.24,0000 0000 0000 0000 000000
2015-09-22 00:32:25,0.07,0.90,0.00,20.43,26.42,29.83,14.82,49.31,1021.50,2041.98,3088.19,3003.96,3270.01,600.21,604.25,33.29,0000 0000 0000 0000 000000
2015-09-22 00:37:27,0.05,0.91,0.00,20.42,26.42,29.79,14.86,49.33,1021.50,2041.98,3087.01,3003.10,3269.12,599.87,604.01,33.34,0000 0000 0000 0000 000000
2015-09-22 00:42:28,0.04,0.91,0.00,20.42,26.42,29.77,14.89,49.46,1021.51,2041.97,3086.09,3002.67,3268.61,600.21,604.26,33.39,0000 0000 0000 0000 000000
2015-09-22 00:47:29,0.05,0.91,0.00,20.42,26.40,29.76,14.87,49.35,1021.51,2041.98,3084.98,3001.88,3267.75,599.74,604.12,33.44,0000 0000 0000 0000 000000
2015-09-22 00:52:31,0.06,0.91,0.00,20.42,26.40,29.75,14.81,49.27,1021.51,2041.97,3083.27,3001.03,3266.89,600.01,604.12,33.49,0000 0000 0000 0000 000000
2015-09-22 00:57:32,0.05,0.92,0.00,20.42,26.40,29.76,14.83,49.42,1021.50,2041.99,3082.54,3000.27,3266.11,600.02,604.21,33.55,0000 0000 0000 0000 000000
2015-09-22 01:02:33,0.04,0.92,0.00,20.41,26.38,29.71,14.89,49.45,1021.50,2041.99,3081.57,2999.77,3265.59,600.12,604.28,33.60,0000 0000 0000 0000 000000
2015-09-22 01:07:35,0.06,0.92,0.00,20.40,26.37,29.75,14.88,49.33,1021.50,2041.99,3079.99,2998.84,3264.40,600.15,604.40,33.65,0000 0000 0000 0000 000000
2015-09-22 01:12:36,0.09,0.93,0.00,20.41,26.37,29.73,14.88,49.32,1021.50,2041.99,3078.20,2997.62,3263.23,600.08,604.29,33.70,0000 0000 0000 0000 000000
2015-09-22 01:17:37,0.06,0.93,0.00,20.41,26.37,29.72,14.82,49.36,1021.50,2041.99,3076.76,2996.74,3262.37,599.78,603.88,33.75,0000 0000 0000 0000 000000
2015-09-22 01:22:38,0.04,0.93,0.00,20.41,26.35,29.75,14.87,49.42,1021.50,2041.99,3075.47,2996.01,3261.63,599.88,604.06,33.80,0000 0000 0000 0000 000000
2015-09-22 01:27:40,0.07,0.94,0.00,20.42,26.35,29.75,14.82,49.42,1021.50,2041.99,3074.00,2995.14,3260.60,600.05,604.21,33.85,0000 0000 0000 0000 000000
2015-09-22 01:32:41,0.05,0.94,0.00,20.41,26.35,29.72,14.82,49.30,1021.50,2041.99,3072.58,2994.17,3259.84,599.86,603.98,33.90,0000 0000 0000 0000 000000
2015-09-22 01:37:42,0.03,0.94,0.00,20.40,26.35,29.67,14.85,49.38,1021.50,2041.99,3071.65,2993.92,3259.05,599.99,604.22,33.95,0000 0000 0000 0000 000000
2015-09-22 01:42:43,0.05,0.94,0.00,20.40,26.35,29.70,14.85,49.38,1021.50,2041.99,3070.75,2993.10,3258.46,599.99,604.27,34.00,0000 0000 0000 0000 000000
2015-09-22 01:47:45,0.02,0.95,0.00,20.40,26.34,29.68,14.83,49.55,1021.50,2042.00,3070.02,2992.78,3258.01,599.63,604.08,34.05,0000 0000 0000 0000 000000
2015-09-22 01:52:46,0.03,0.95,0.00,20.40,26.32,29.66,14.91,49.42,1021.50,2042.00,3069.71,2992.14,3257.82,600.27,604.54,34.10,0000 0000 0000 0000 000000
2015-09-22 01:57:47,0.06,0.95,0.00,20.41,26.32,29.69,14.82,49.41,1021.50,2042.00,3068.49,2991.65,3256.90,599.84,604.04,34.15,0000 0000 0000 0000 000000
2015-09-22 02:02:49,0.05,0.95,0.00,20.41,26.32,29.69,14.91,49.42,1021.50,2042.00,3067.04,2990.74,3255.97,600.50,604.56,34.20,0000 0000 0000 0000 000000
2015-09-22 02:07:50,0.04,0.96,0.00,20.40,26.32,29.69,14.88,49.37,1021.50,2042.01,3066.11,2990.02,3255.14,599.72,603.82,34.25,0000 0000 0000 0000 000000
2015-09-22 02:12:51,0.00,0.96,0.00,20.40,26.32,29.67,14.90,49.47,1021.50,2042.00,3065.89,2989.99,3255.00,600.11,604.31,34.30,0000 0000 0000 0000 000000
2015-09-22 02:17:52,0.02,0.96,0.00,20.40,26.31,29.67,14.82,49.41,1021.50,2042.00,3065.21,2989.83,3254.91,599.66,604.00,34.35,0000 0000 0000 0000 000000
2015-09-22 02:22:53,0.03,0.96,0.00,20.40,26.30,29.68,14.82,49.50,1021.50,2042.01,3065.00,2989.22,3254.28,599.86,604.13,34.40,0000 0000 0000 0000 000000
2015-09-22 02:27:55,0.00,0.96,0.00,20.39,26.30,29.68,14.89,49.40,1021.50,2042.02,3064.90,2989.04,3254.03,600.29,604.39,34.46,0000 0000 0000 0000 000000
2015-09-22 02:32:56,0.01,0.96,0.00,20.39,26.30,29.69,14.89,49.55,1021.50,2042.01,3064.14,2989.00,3254.00,599.94,604.16,34.51,0000 0000 0000 0000 000000
2015-09-22 02:37:57,0.05,0.96,0.00,20.39,26.30,29.68,14.91,49.50,1021.50,2042.01,3063.55,2988.45,3253.37,600.30,604.56,34.56,0000 0000 0000 0000 000000
2015-09-22 02:42:58,0.00,0.96,0.00,20.39,26.30,29.72,14.92,49.60,1021.50,2042.02,3062.92,2988.00,3252.99,600.36,604.58,34.61,0000 0000 0000 0000 000000
2015-09-22 02:47:59,0.02,0.96,0.00,20.39,26.30,29.67,14.87,49.42,1021.50,2042.04,3062.27,2987.98,3252.77,600.09,604.29,34.66,0000 0000 0000 0000 000000
2015-09-22 02:53:00,0.03,0.96,0.00,20.39,26.29,29.68,14.87,49.42,1021.49,2042.02,3061.83,2987.52,3252.16,600.52,604.72,34.71,0000 0000 0000 0000 000000
2015-09-22 02:58:02,0.02,0.97,0.00,20.39,26.29,29.66,14.82,49.37,1021.49,2042.03,3061.03,2987.01,3251.92,599.91,604.07,34.76,0000 0000 0000 0000 000000
2015-09-22 03:03:03,0.05,0.97,0.00,20.39,26.28,29.65,14.81,49.56,1021.47,2042.04,3060.34,2986.52,3251.13,599.45,603.65,34.81,0000 0000 0000 0000 000000
2015-09-22 03:08:04,0.01,0.97,0.00,20.39,26.27,29.65,14.81,49.49,1021.46,2042.04,3059.99,2986.08,3251.00,599.74,604.03,34.86,0000 0000 0000 0000 000000
2015-09-22 03:13:05,0.02,0.97,0.00,20.39,26.27,29.68,14.85,49.32,1021.46,2042.12,3059.81,2986.01,3250.98,600.33,604.52,34.91,0000 0000 0000 0000 000000
2015-09-22 03:18:06,0.02,0.97,0.00,20.40,26.27,29.65,14.88,49.42,1021.44,2042.12,3059.08,2985.97,3250.32,600.06,604.24,34.96,0000 0000 0000 0000 000000
2015-09-22 03:23:07,0.04,0.97,0.00,20.42,26.27,29.65,14.83,49.44,1021.45,2042.24,3058.69,2985.54,3250.01,599.82,603.92,35.01,0000 0000 0000 0000 000000
2015-09-22 03:28:08,0.03,0.98,0.00,20.42,26.27,29.65,14.85,49.41,1021.44,2042.36,3058.02,2985.02,3249.73,600.25,604.26,35.06,0000 0000 0000 0000 000000
2015-09-22 03:33:10,0.01,0.98,0.00,20.42,26.27,29.63,14.91,49.57,1021.44,2042.21,3057.70,2984.98,3249.08,599.99,604.06,35.11,0000 0000 0000 0000 000000
2015-09-22 03:38:11,0.01,0.98,0.00,20.42,26.27,29.67,14.87,49.63,1021.49,2042.08,3057.02,2984.42,3249.00,600.26,604.36,35.16,0000 0000 0000 0000 000000
2015-09-22 03:43:12,0.01,0.98,0.00,20.44,26.27,29.66,14.92,49.65,1021.50,2042.05,3056.89,2984.04,3248.81,600.38,604.56,35.21,0000 0000 0000 0000 000000
2015-09-22 03:48:13,0.02,0.98,0.00,20.44,26.27,29.65,14.86,49.61,1021.50,2042.04,3056.09,2983.99,3248.06,599.63,603.74,35.26,0000 0000 0000 0000 000000
2015-09-22 03:53:14,0.01,0.98,0.00,20.42,26.27,29.65,14.85,49.56,1021.50,2042.05,3055.95,2983.83,3248.00,600.05,604.18,35.31,0000 0000 0000 0000 000000
2015-09-22 03:58:16,0.01,0.98,0.00,20.42,26.27,29.67,14.93,49.82,1021.50,2042.06,3055.79,2983.57,3248.00,599.83,603.94,35.36,0000 0000 0000 0000 000000
2015-09-22 04:03:17,0.02,0.98,0.00,20.43,26.27,29.67,14.87,49.59,1021.48,2042.10,3055.27,2983.23,3247.94,599.74,603.75,35.41,0000 0000 0000 0000 000000
2015-09-22 04:08:18,0.03,0.98,0.00,20.44,26.27,29.69,14.83,49.51,1021.49,2042.20,3055.01,2983.03,3247.56,599.48,603.60,35.46,0000 0000 0000 0000 000000
2015-09-22 04:13:19,0.02,0.98,0.00,20.44,26.27,29.66,14.77,49.44,1021.50,2042.21,3054.64,2983.00,3247.05,599.52,603.74,35.52,0000 0000 0000 0000 000000
2015-09-22 04:18:20,-0.01,0.98,0.00,20.45,26.27,29.65,14.83,49.39,1021.50,2042.16,3054.03,2982.95,3246.99,600.22,604.35,35.57,0000 0000 0000 0000 000000
2015-09-22 04:23:22,0.02,0.98,0.00,20.46,26.27,29.65,14.77,49.42,1021.50,2042.23,3053.99,2982.59,3246.91,599.72,603.80,35.62,0000 0000 0000 0000 000000
2015-09-22 04:28:23,0.03,0.99,0.00,20.45,26.27,29.68,14.81,49.25,1021.50,2042.22,3053.88,2982.14,3246.45,600.05,604.15,35.67,0000 0000 0000 0000 000000
2015-09-22 04:33:24,0.02,0.99,0.00,20.45,26.27,29.70,14.89,49.41,1021.50,2042.31,3053.20,2982.03,3246.05,599.92,603.94,35.72,0000 0000 0000 0000 000000
2015-09-22 04:38:26,0.02,0.99,0.00,20.46,26.27,29.71,14.93,49.32,1021.50,2042.42,3052.93,2981.99,3245.99,600.77,604.89,35.77,0000 0000 0000 0000 000000
2015-09-22 04:43:27,0.05,0.99,0.00,20.47,26.27,29.67,14.83,49.33,1021.50,2042.46,3052.01,2981.23,3245.25,599.87,603.94,35.82,0000 0000 0000 0000 000000
2015-09-22 04:48:28,0.02,0.99,0.00,20.47,26.27,29.68,14.85,49.32,1021.50,2042.38,3051.14,2980.99,3244.99,599.88,604.16,35.87,0000 0000 0000 0000 000000
2015-09-22 04:53:29,0.03,0.99,0.00,20.47,26.27,29.72,14.83,49.42,1021.50,2042.45,3050.69,2980.62,3244.32,599.90,604.26,35.92,0000 0000 0000 0000 000000
2015-09-22 04:58:31,0.00,0.99,0.00,20.47,26.27,29.70,14.87,49.54,1021.50,2042.29,3050.08,2980.09,3244.02,600.14,604.23,35.97,0000 0000 0000 0000 000000
2015-09-22 05:03:32,-0.00,0.99,0.00,20.49,26.28,29.70,14.86,49.31,1021.50,2042.20,3049.96,2980.00,3243.98,600.53,604.56,36.02,0000 0000 0000 0000 000000
2015-09-22 05:08:34,0.02,1.00,0.00,20.47,26.29,29.69,14.90,49.50,1021.50,2042.19,3049.21,2979.97,3243.54,599.97,604.01,36.07,0000 0000 0000 0000 000000
2015-09-22 05:13:35,0.03,1.00,0.00,20.47,26.29,29.72,14.86,49.27,1021.50,2042.18,3048.99,2979.29,3243.03,600.17,604.19,36.12,0000 0000 0000 0000 000000
2015-09-22 05:18:36,0.01,1.00,0.00,20.47,26.30,29.71,14.84,49.31,1021.51,2042.13,3048.42,2979.01,3242.95,599.86,603.92,36.17,0000 0000 0000 0000 000000
2015-09-22 05:23:37,0.01,1.00,0.00,20.47,26.30,29.69,14.78,49.32,1021.51,2042.18,3048.03,2979.00,3242.92,599.78,603.82,36.22,0000 0000 0000 0000 000000
2015-09-22 05:28:38,0.00,1.00,0.00,20.48,26.30,29.72,14.80,49.35,1021.50,2042.11,3048.00,2978.97,3242.35,599.91,603.97,36.27,0000 0000 0000 0000 000000
2015-09-22 05:33:40,0.03,1.00,0.00,20.49,26.30,29.74,14.87,49.53,1021.50,2042.07,3047.57,2978.50,3242.02,600.37,604.44,36.32,0000 0000 0000 0000 000000
2015-09-22 05:38:41,0.01,1.00,0.00,20.49,26.30,29.72,14.82,49.52,1021.50,2042.06,3047.02,2978.03,3241.98,599.85,603.87,36.37,0000 0000 0000 0000 000000
2015-09-22 05:43:43,0.02,1.00,0.00,20.48,26.30,29.72,14.83,49.42,1021.51,2042.05,3046.54,2977.99,3241.33,599.99,604.00,36.43,0000 0000 0000 0000 000000
2015-09-22 05:48:44,0.02,1.00,0.00,20.49,26.30,29.72,14.82,49.48,1021.50,2042.10,3046.00,2977.74,3241.01,599.65,603.71,36.48,0000 0000 0000 0000 000000
2015-09-22 05:53:46,0.21,1.01,0.00,20.49,26.30,29.73,14.85,49.45,1021.51,2042.05,3043.62,2975.39,3238.93,600.01,604.03,36.53,0000 0000 0000 0000 000000
2015-09-22 05:58:47,0.08,1.02,0.00,20.49,26.30,29.73,14.89,49.33,1021.53,2042.05,3040.80,2973.04,3236.10,600.23,604.33,36.58,0000 0000 0000 0000 000000
2015-09-22 06:03:49,0.03,1.02,0.00,20.49,26.30,29.71,14.81,49.42,1021.55,2042.04,3040.02,2972.31,3235.90,599.95,604.03,36.63,0000 0000 0000 0000 000000
2015-09-22 06:08:50,0.03,1.02,0.00,20.49,26.30,29.75,14.85,49.55,1021.56,2042.08,3039.78,2972.01,3235.27,599.94,604.01,36.68,0000 0000 0000 0000 000000
2015-09-22 06:13:51,0.01,1.02,0.00,20.49,26.30,29.74,14.87,49.44,1021.56,2042.08,3039.06,2972.00,3235.01,600.26,604.24,36.73,0000 0000 0000 0000 000000
2015-09-22 06:18:53,0.01,1.02,0.00,20.49,26.30,29.73,14.82,49.52,1021.54,2042.05,3038.77,2971.88,3234.98,599.92,603.87,36.78,0000 0000 0000 0000 000000
2015-09-22 06:23:54,0.04,1.02,0.00,20.49,26.31,29.74,14.88,49.55,1021.61,2042.05,3038.05,2971.22,3234.39,600.07,604.08,36.83,0000 0000 0000 0000 000000
2015-09-22 06:28:55,0.02,1.03,0.00,20.49,26.31,29.75,14.87,49.51,1021.65,2042.06,3037.28,2970.91,3233.96,600.14,604.14,36.88,0000 0000 0000 0000 000000
2015-09-22 06:33:56,0.04,1.03,0.00,20.49,26.32,29.73,14.85,49.45,1021.62,2042.03,3036.88,2970.21,3233.27,600.05,604.11,36.93,0000 0000 0000 0000 000000
2015-09-22 06:38:58,0.01,1.03,0.00,20.49,26.32,29.75,14.86,49.57,1021.62,2042.02,3036.10,2970.00,3233.00,600.06,604.06,36.98,0000 0000 0000 0000 000000
2015-09-22 06:43:59,0.00,1.03,0.00,20.49,26.32,29.74,14.87,49.46,1021.71,2042.02,3036.00,2970.00,3232.98,600.10,603.93,37.03,0000 0000 0000 0000 000000
2015-09-22 06:49:00,0.05,1.03,0.00,20.49,26.32,29.72,14.87,49.54,1021.88,2042.02,3035.37,2969.57,3232.40,599.61,603.82,37.08,0000 0000 0000 0000 000000
2015-09-22 06:54:01,0.01,1.03,0.00,20.49,26.32,29.74,14.87,49.52,1021.97,2042.03,3034.98,2969.03,3232.01,599.80,604.12,37.13,0000 0000 0000 0000 000000
2015-09-22 06:59:03,0.01,1.03,0.00,20.49,26.32,29.73,14.82,49.48,1021.99,2042.03,3034.53,2969.00,3232.00,599.91,604.31,37.18,0000 0000 0000 0000 000000
2015-09-22 07:04:04,0.00,1.03,0.00,20.49,26.32,29.73,14.82,49.40,1021.99,2042.02,3034.03,2968.99,3231.96,599.98,604.33,37.23,0000 0000 0000 0000 000000
2015-09-22 07:09:05,0.01,1.03,0.00,20.49,26.32,29.73,14.87,49.48,1021.99,2042.01,3034.00,2968.90,3231.40,600.26,604.55,37.28,0000 0000 0000 0000 000000
2015-09-22 07:14:07,0.04,1.04,0.00,20.49,26.32,29.74,14.84,49.36,1021.99,2042.02,3033.55,2968.19,3231.02,599.97,604.27,37.33,0000 0000 0000 0000 000000
2015-09-22 07:19:08,0.00,1.04,0.00,20.49,26.32,29.74,14.91,49.49,1021.99,2042.00,3033.00,2968.00,3230.86,600.17,604.51,37.38,0000 0000 0000 0000 000000
2015-09-22 07:24:09,0.02,1.04,0.00,20.49,26.32,29.74,14.83,49.45,1021.99,2042.01,3032.69,2967.97,3230.16,600.08,604.33,37.44,0000 0000 0000 0000 000000
2015-09-22 07:29:10,0.03,1.04,0.00,20.49,26.32,29.73,14.91,49.58,1021.99,2042.01,3032.03,2967.48,3230.00,600.34,604.63,37.49,0000 0000 0000 0000 000000
2015-09-22 07:34:11,0.00,1.04,0.00,20.49,26.32,29.72,14.81,49.46,1021.99,2042.01,3031.99,2967.06,3229.99,599.75,604.05,37.54,0000 0000 0000 0000 000000
2015-09-22 07:39:12,0.03,1.04,0.00,20.49,26.32,29.74,14.84,49.42,1021.99,2042.02,3031.48,2966.92,3229.49,600.04,604.34,37.59,0000 0000 0000 0000 000000
2015-09-22 07:44:14,0.05,1.04,0.00,20.49,26.32,29.76,14.84,49.56,1021.99,2042.01,3030.46,2966.13,3228.64,599.82,604.12,37.64,0000 0000 0000 0000 000000
2015-09-22 07:49:15,0.04,1.05,0.00,20.49,26.32,29.73,14.92,49.50,1021.99,2042.01,3029.56,2965.52,3228.01,600.45,604.77,37.69,0000 0000 0000 0000 000000
2015-09-22 07:54:16,0.02,1.05,0.00,20.49,26.32,29.71,14.95,49.43,1021.99,2042.00,3029.02,2965.03,3227.64,600.61,604.99,37.74,0000 0000 0000 0000 000000
2015-09-22 07:59:18,0.01,1.05,0.00,20.49,26.32,29.75,14.87,49.68,1021.99,2042.01,3028.58,2964.99,3227.04,600.12,604.34,37.79,0000 0000 0000 0000 000000
2015-09-22 08:04:19,0.01,1.05,0.00,20.49,26.32,29.73,14.79,49.67,1021.99,2042.01,3028.05,2964.77,3226.98,600.01,604.29,37.84,0000 0000 0000 0000 000000
2015-09-22 08:09:20,0.04,1.05,0.00,20.49,26.32,29.75,14.92,49.77,1021.99,2042.00,3027.63,2964.05,3226.35,600.17,604.57,37.89,0000 0000 0000 0000 000000
2015-09-22 08:14:21,0.00,1.05,0.00,20.49,26.32,29.74,14.82,49.72,1021.99,2042.00,3027.03,2964.00,3226.01,600.21,604.51,37.94,0000 0000 0000 0000 000000
2015-09-22 08:19:22,0.00,1.05,0.00,20.49,26.32,29.74,14.87,49.65,1021.99,2042.00,3026.98,2963.98,3225.98,599.87,604.17,37.99,0000 0000 0000 0000 000000
2015-09-22 08:24:24,0.06,1.05,0.00,20.49,26.32,29.76,14.88,49.60,1022.00,2042.00,3026.06,2963.25,3225.40,600.03,604.32,38.04,0000 0000 0000 0000 000000
2015-09-22 08:29:25,0.08,1.06,0.00,20.49,26.32,29.73,14.83,49.58,1022.00,2042.00,3024.39,2962.14,3224.23,599.98,604.30,38.09,0000 0000 0000 0000 000000
2015-09-22 08:34:26,0.12,1.06,0.00,20.48,26.32,29.74,14.86,49.73,1022.00,2042.00,3021.95,2960.51,3222.47,600.05,604.37,38.14,0000 0000 0000 0000 000000
2015-09-22 08:39:27,0.02,1.07,0.00,20.47,26.32,29.72,14.83,49.62,1022.01,2042.00,3020.93,2959.97,3221.74,599.94,604.31,38.19,0000 0000 0000 0000 000000
2015-09-22 08:44:28,0.04,1.07,0.00,20.47,26.32,29.72,14.89,49.69,1022.01,2042.00,3020.15,2959.36,3221.06,600.13,604.50,38.24,0000 0000 0000 0000 000000
2015-09-22 08:49:30,0.01,1.07,0.00,20.47,26.32,29.72,14.96,49.56,1022.01,2042.00,3019.91,2959.03,3221.00,600.16,604.62,38.29,0000 0000 0000 0000 000000
2015-09-22 08:54:31,0.04,1.07,0.00,20.46,26.32,29.74,14.88,49.60,1022.05,2042.00,3019.06,2958.68,3220.31,600.09,604.49,38.34,0000 0000 0000 0000 000000
2015-09-22 08:59:32,0.03,1.07,0.00,20.45,26.32,29.69,14.81,49.52,1022.20,2042.00,3018.38,2958.05,3220.00,599.79,604.38,38.40,0000 0000 0000 0000 000000
2015-09-22 09:04:34,0.01,1.07,0.00,20.45,26.32,29.71,14.82,49.52,1022.29,2042.00,3017.99,2957.98,3219.55,599.77,604.35,38.45,0000 0000 0000 0000 000000
2015-09-22 09:09:35,0.02,1.08,0.00,20.45,26.32,29.69,14.87,49.56,1022.43,2041.99,3017.54,2957.88,3219.04,600.19,604.79,38.50,0000 0000 0000 0000 000000
2015-09-22 09:14:37,0.02,1.08,0.00,20.44,26.32,29.71,14.87,49.43,1022.46,2041.99,3016.99,2957.26,3218.98,600.10,604.78,38.55,0000 0000 0000 0000 000000
2015-09-22 09:19:38,0.03,1.08,0.00,20.44,26.32,29.70,14.87,49.48,1022.47,2041.99,3016.12,2956.96,3218.24,599.79,604.52,38.60,0000 0000 0000 0000 000000
2015-09-22 09:24:39,0.03,1.08,0.00,20.44,26.32,29.71,14.77,49.52,1022.48,2041.99,3015.74,2956.40,3217.99,599.82,604.50,38.65,0000 0000 0000 0000 000000
2015-09-22 09:29:40,0.00,1.08,0.00,20.44,26.32,29.70,14.90,49.61,1022.48,2041.99,3015.47,2956.25,3217.99,600.04,604.79,38.70,0000 0000 0000 0000 000000
2015-09-22 09:34:41,0.01,1.08,0.00,20.44,26.32,29.73,14.89,49.59,1022.48,2041.99,3015.10,2956.06,3217.98,599.90,604.59,38.75,0000 0000 0000 0000 000000
2015-09-22 09:39:43,0.00,1.08,0.00,20.44,26.32,29.68,14.83,49.45,1022.48,2041.99,3015.02,2956.02,3217.95,600.02,604.71,38.80,0000 0000 0000 0000 000000
2015-09-22 09:44:44,0.00,1.08,0.00,20.44,26.32,29.69,14.93,49.55,1022.48,2041.99,3015.00,2956.03,3217.89,600.27,604.98,38.85,0000 0000 0000 0000 000000
2015-09-22 09:49:45,0.00,1.08,0.00,20.44,26.32,29.66,14.91,49.58,1022.48,2041.99,3015.00,2956.00,3217.64,600.12,604.78,38.90,0000 0000 0000 0000 000000
2015-09-22 09:54:47,0.00,1.08,0.00,20.44,26.32,29.69,14.86,49.54,1022.48,2041.99,3014.98,2956.00,3217.21,599.94,604.67,38.95,0000 0000 0000 0000 000000
2015-09-22 09:59:48,0.00,1.08,0.00,20.44,26.32,29.72,14.94,49.51,1022.48,2041.99,3014.96,2956.00,3217.08,600.13,604.77,39.00,0000 0000 0000 0000 000000
2015-09-22 10:04:49,0.01,1.08,0.00,20.44,26.32,29.69,14.92,49.58,1022.49,2041.99,3014.55,2955.99,3217.03,599.84,604.53,39.05,0000 0000 0000 0000 000000
2015-09-22 10:09:50,0.00,1.08,0.00,20.44,26.31,29.65,14.87,49.42,1022.50,2041.99,3014.16,2955.99,3217.02,600.05,604.85,39.10,0000 0000 0000 0000 000000
2015-09-22 10:14:51,0.00,1.08,0.00,20.43,26.30,29.67,14.86,49.58,1022.51,2041.99,3014.03,2955.98,3217.00,599.82,604.55,39.15,0000 0000 0000 0000 000000
2015-09-22 10:19:53,0.00,1.08,0.00,20.42,26.30,29.70,14.83,49.50,1022.49,2041.99,3014.05,2955.98,3217.00,599.85,604.59,39.20,0000 0000 0000 0000 000000
2015-09-22 10:24:54,0.00,1.08,0.00,20.42,26.30,29.66,14.88,49.51,1022.52,2041.99,3014.01,2955.96,3217.00,600.28,605.01,39.26,0000 0000 0000 0000 000000
2015-09-22 10:29:56,0.00,1.08,0.00,20.42,26.30,29.67,14.85,49.47,1022.51,2041.99,3014.00,2955.95,3217.00,599.77,604.52,39.31,0000 0000 0000 0000 000000
2015-09-22 10:34:57,0.04,1.08,0.00,20.42,26.30,29.69,14.89,49.46,1022.51,2041.99,3013.60,2955.31,3216.68,600.07,604.77,39.36,0000 0000 0000 0000 000000
2015-09-22 10:39:58,0.01,1.09,0.00,20.42,26.30,29.70,14.93,49.60,1022.50,2041.99,3013.02,2955.01,3216.05,600.16,604.84,39.41,0000 0000 0000 0000 000000
2015-09-22 10:44:59,0.01,1.09,0.00,20.42,26.30,29.68,14.93,49.53,1022.49,2041.99,3012.59,2954.96,3215.96,600.07,604.84,39.46,0000 0000 0000 0000 000000
2015-09-22 10:50:01,0.04,1.09,0.00,20.42,26.30,29.66,14.83,49.47,1022.49,2041.99,3012.02,2954.30,3215.29,600.10,604.85,39.51,0000 0000 0000 0000 000000
2015-09-22 10:55:02,0.00,1.09,0.00,20.42,26.30,29.68,14.90,49.50,1022.50,2041.99,3011.83,2954.01,3215.00,600.10,604.80,39.56,0000 0000 0000 0000 000000
2015-09-22 11:00:03,0.01,1.09,0.00,20.41,26.30,29.69,14.94,49.52,1022.49,2041.99,3011.53,2953.99,3214.99,600.42,605.19,39.61,0000 0000 0000 0000 000000
2015-09-22 11:05:04,0.00,1.09,0.00,20.42,26.30,29.63,14.88,49.79,1022.49,2041.99,3011.25,2953.99,3214.98,600.09,604.84,39.66,0000 0000 0000 0000 000000
2015-09-22 11:10:05,0.00,1.09,0.00,20.41,26.29,29.67,14.83,49.80,1022.48,2041.98,3011.10,2953.99,3214.97,599.99,604.68,39.71,0000 0000 0000 0000 000000
2015-09-22 11:15:06,0.00,1.09,0.00,20.41,26.28,29.64,14.89,49.62,1022.49,2041.98,3011.01,2953.97,3214.94,600.04,604.81,39.76,0000 0000 0000 0000 000000
2015-09-22 11:20:08,0.00,1.09,0.00,20.42,26.27,29.65,14.89,49.73,1022.50,2041.98,3011.00,2953.96,3214.83,599.98,604.78,39.81,0000 0000 0000 0000 000000
2015-09-22 11:25:09,0.00,1.09,0.00,20.41,26.27,29.63,14.90,49.82,1022.49,2041.98,3011.00,2953.98,3214.75,599.98,604.74,39.86,0000 0000 0000 0000 000000
2015-09-22 11:30:10,0.01,1.09,0.00,20.40,26.27,29.64,14.82,49.68,1022.51,2041.99,3011.00,2953.97,3214.59,599.83,604.64,39.91,0000 0000 0000 0000 000000
2015-09-22 11:35:11,0.00,1.09,0.00,20.39,26.27,29.64,14.87,49.81,1022.49,2041.99,3010.99,2953.95,3214.33,599.59,604.44,39.96,0000 0000 0000 0000 000000
2015-09-22 11:40:13,0.00,1.09,0.00,20.39,26.27,29.67,14.89,49.67,1022.51,2041.99,3010.96,2953.96,3214.31,600.04,604.99,40.01,0000 0000 0000 0000 000000
2015-09-22 11:45:14,0.00,1.09,0.00,20.39,26.27,29.65,14.99,49.70,1022.50,2041.99,3010.96,2953.86,3214.06,600.33,605.29,40.06,0000 0000 0000 0000 000000
2015-09-22 11:50:15,-0.00,1.09,0.00,20.39,26.27,29.63,14.90,49.73,1022.50,2041.99,3010.91,2953.85,3214.02,600.02,604.75,40.11,0000 0000 0000 0000 000000
2015-09-22 11:55:17,0.02,1.09,0.00,20.39,26.26,29.64,14.90,49.67,1022.49,2041.99,3010.66,2953.72,3214.01,600.07,604.88,40.16,0000 0000 0000 0000 000000
2015-09-22 12:00:18,0.01,1.09,0.00,20.38,26.26,29.66,14.91,49.80,1022.49,2041.99,3010.19,2953.47,3214.00,599.94,604.78,40.21,0000 0000 0000 0000 000000
2015-09-22 12:05:19,0.01,1.09,0.00,20.37,26.25,29.61,14.83,49.53,1022.49,2041.99,3010.02,2953.20,3214.00,599.82,604.60,40.27,0000 0000 0000 0000 000000
2015-09-22 12:10:20,0.00,1.09,0.00,20.37,26.25,29.63,14.87,49.67,1022.48,2041.99,3010.00,2953.05,3214.00,600.16,605.00,40.32,0000 0000 0000 0000 000000
2015-09-22 12:15:21,0.00,1.09,0.00,20.37,26.25,29.64,14.89,49.54,1022.48,2041.99,3010.00,2953.04,3213.99,600.05,604.90,40.37,0000 0000 0000 0000 000000
2015-09-22 12:20:22,0.00,1.09,0.00,20.35,26.25,29.63,14.83,49.71,1022.48,2041.99,3009.99,2953.02,3213.97,599.88,604.81,40.42,0000 0000 0000 0000 000000
2015-09-22 12:25:23,0.00,1.09,0.00,20.34,26.25,29.61,14.86,49.57,1022.48,2041.99,3009.98,2953.01,3213.97,599.88,604.78,40.47,0000 0000 0000 0000 000000
2015-09-22 12:30:24,0.00,1.09,0.00,20.34,26.25,29.60,14.93,49.60,1022.48,2041.99,3009.99,2953.01,3213.95,600.22,605.19,40.52,0000 0000 0000 0000 000000
2015-09-22 12:35:26,-0.00,1.09,0.00,20.34,26.25,29.63,14.90,49.51,1022.48,2041.99,3009.96,2953.01,3213.86,600.16,605.06,40.57,0000 0000 0000 0000 000000
2015-09-22 12:40:27,0.00,1.09,0.00,20.34,26.24,29.62,14.90,49.47,1022.48,2041.99,3009.93,2953.02,3213.87,600.12,605.01,40.62,0000 0000 0000 0000 000000
2015-09-22 12:45:28,0.00,1.09,0.00,20.34,26.23,29.58,14.83,49.57,1022.48,2041.99,3009.84,2953.01,3213.83,599.97,604.86,40.67,0000 0000 0000 0000 000000
2015-09-22 12:50:30,0.01,1.09,0.00,20.33,26.22,29.58,14.80,49.53,1022.48,2041.99,3009.40,2953.00,3213.47,599.89,604.94,40.72,0000 0000 0000 0000 000000
2015-09-22 12:55:31,0.00,1.10,0.00,20.32,26.22,29.60,14.88,49.60,1022.48,2041.99,3009.15,2953.00,3213.32,600.04,604.98,40.77,0000 0000 0000 0000 000000